Location: Newark
(49.2191°N, 12.6671°E)
Time: 15:36:43
(UTC+00:00)

Transit 4A - Pass Details

Date: 30 January 2020
Orbit: 872 x 973 km, 66.8° (Epoch: 23 February)

Event Time Altitude Azimuth Distance (km) Brightness Sun altitude
Rises 12:17:06 0° 325° (NW) 3,475 10.5 22.0°
Reaches altitude 10° 12:19:40 10° 330° (NNW) 2,531 9.9 21.9°
Maximum altitude 12:25:23 54° 47° (NE) 1,059 8.2 21.6°
Drops below altitude 10° 12:31:06 10° 125° (SE) 2,535 10.5 21.4°
Sets 12:33:40 0° 130° (SE) 3,481 11.2 21.2°
